Location: Unspecified
(33.7438°N, 118.3804°W)
Time: 11:51:18
(UTC+00:00)

Daily predictions for brighter satellites

Satellite Brightness Start Highest point End
(mag) Time Altitude Azimuth Time Altitude Azimuth Time Altitude Azimuth
BREEZE M DEB (TANK) 4.3 12:10:25 15° N 12:11:52 19° NNE 12:16:37 10° ENE
Meteor 1-31 Rocket 3.2 12:08:44 10° NNE 12:12:29 58° E 12:14:23 27° S
Aureole 1 Rocket 4.0 12:09:06 10° N 12:13:31 43° ENE 12:16:58 10° SE
PAYLOAD A 4.3 12:16:44 10° NNE 12:22:07 77° ESE 12:27:33 10° S
Okean 1 4.2 12:21:24 10° S 12:25:16 50° E 12:29:11 10° NNE
Lacrosse 4 Rocket 4.0 12:23:37 10° SSE 12:26:36 20° ESE 12:29:38 10° ENE
SME Rocket 3.6 12:20:36 10° N 12:26:52 60° WNW 12:29:08 30° SW
Cosmos 1867 3.6 12:24:18 19° SSW 12:28:16 79° ESE 12:33:45 10° NNE
Cosmos 2074 Rocket 4.0 12:22:17 10° S 12:28:29 88° E 12:34:45 10° N
PSLV R/B 3.5 12:24:48 10° NNE 12:28:30 88° E 12:30:53 21° SSW
CZ-4B R/B 3.8 12:26:37 10° N 12:30:44 80° WNW 12:34:33 13° SSW
Okean O Rocket 2.8 12:27:56 10° NNE 12:32:06 43° E 12:36:12 10° S
Sich 1 Rocket 3.6 12:27:56 10° NNW 12:32:26 57° W 12:36:52 10° S
CZ-4B R/B 2.9 12:30:38 10° N 12:34:22 48° WNW 12:35:06 41° WSW
CZ-4B R/B 4.3 12:29:33 10° NNE 12:34:54 47° E 12:40:17 10° S
MSX 3.8 12:29:36 10° N 12:35:24 82° WNW 12:41:11 10° SSW
Cosmos 2221 Rocket 3.9 12:41:09 18° SSW 12:44:08 45° W 12:48:30 10° N
CZ-4B DEB 4.2 12:43:23 10° NNE 12:48:55 90° ESE 12:54:27 10° SSW
Cosmos 2181 Rocket 4.3 12:43:17 10° NNW 12:48:59 42° W 12:54:45 10° SSW
IRIS 4.5 12:50:23 24° NW 12:51:25 43° NNE 12:53:56 10° E
Cosmos 1818 3.8 12:47:12 10° NNW 12:52:41 72° ENE 12:58:05 10° SE
ATLAS 2AS CENTAUR R/B 3.1 12:45:02 10° SSW 12:52:50 89° NW 13:01:00 10° NNE
Cosmos 1975 3.9 12:49:56 10° N 12:53:53 48° E 12:57:48 10° SSE
COSMOS 2406 4.4 12:52:46 19° W 12:54:50 23° WNW 12:59:22 10° N
Helios 1A Rocket 4.0 12:51:59 10° NNW 12:55:27 26° WNW 12:57:08 20° WSW
Cosmos 1400 Rocket 3.7 12:54:06 10° S 12:57:54 50° E 13:01:47 10° NNE
Meteor 1-18 Rocket 4.2 12:52:44 10° SSW 12:58:32 69° W 13:04:16 10° N
COSMO-SKYMED 1 3.3 12:58:06 10° SSE 13:02:20 57° ENE 13:06:36 10° N
Okean 3 3.4 12:58:39 10° SSW 13:02:52 63° W 13:07:09 10° N
CZ-2C R/B 2.6 12:59:57 10° N 13:04:42 50° WNW 13:09:17 10° SSW
Lacrosse 5 4.4 13:02:04 10° SSE 13:05:45 20° ESE 13:09:25 10° ENE
Cosmos 1666 2.8 13:03:21 10° NNW 13:07:06 50° W 13:10:50 10° S
Cosmos 2184 Rocket 4.3 13:01:33 10° SSW 13:07:36 45° W 13:13:40 10° N
USA 267 3.3 13:04:29 10° SE 13:11:00 70° SW 13:17:34 10° NW
Aureole 2 Rocket 2.7 13:08:23 10° N 13:11:02 51° ENE 13:13:37 10° SSE
Cosmos 1378 Rocket 4.0 13:06:45 10° S 13:11:09 69° E 13:15:31 10° NNE
Cosmos 1656 3.5 13:06:33 10° NNW 13:11:59 78° WSW 13:17:23 10° SSE
Intelsat 5-3 Rocket 4.2 13:09:43 10° SW 13:12:29 22° SSE 13:17:20 10° ESE
SJ-12 4.2 13:09:38 10° NNE 13:13:45 75° E 13:17:51 10° S
Cosmos 1674 Rocket 3.5 13:09:39 10° SSW 13:13:58 68° W 13:18:20 10° N
Cosmos 1743 2.6 13:11:18 10° N 13:15:08 73° W 13:18:56 10° S
SL-16 Debris 4.4 13:13:59 12° SW 13:15:26 21° S 13:17:43 10° SE
Centaur AC-119 3.4 13:14:58 10° SW 13:16:31 19° SSE 13:18:50 10° ESE
Cosmos 1461 2.6 13:13:52 10° NNW 13:17:49 72° WSW 13:21:42 10° SSE
Cosmos 2082 Rocket 2.3 13:12:20 10° SW 13:17:55 57° WNW 13:23:33 10° NNE
Cosmos 2251 Rocket 3.6 13:12:42 10° NNW 13:18:01 64° WSW 13:23:18 10° S
Okean 2 Rocket 3.9 13:17:49 10° NNW 13:21:37 29° W 13:25:23 10° SSW
CZ-3 R/B 3.6 13:13:04 10° SW 13:23:22 24° S 13:27:50 10° ESE
NOSS 8 (F) 4.3 13:20:20 10° SSW 13:23:55 87° NW 13:27:03 10° NNE
Tiangong 2 1.2 13:21:12 10° WNW 13:24:23 76° NNE 13:27:33 10° ESE
IRS-1C Rocket 4.4 13:19:11 10° NNE 13:24:27 72° ESE 13:29:41 10° S
Cosmos 2151 Rocket 3.9 13:23:28 10° NNW 13:27:47 44° W 13:32:04 10° SSW
Meteor 2-4 Rocket 4.0 13:23:58 10° S 13:29:54 87° E 13:35:51 10° N
Cosmos 1300 Rocket 3.8 13:26:06 10° NNW 13:30:22 46° W 13:34:35 10° SSW
ERBS 3.7 13:28:52 10° SSW 13:32:03 40° SE 13:35:16 10° NE
Cosmos 1515 3.8 13:28:32 10° S 13:32:21 86° E 13:36:12 10° N
Cosmos 1315 Rocket 3.8 13:28:54 10° S 13:32:49 53° E 13:36:42 10° NNE
Cosmos 2056 Rocket 4.2 13:28:08 10° S 13:33:26 63° ESE 13:38:49 10° NNE
Cosmos 1980 Rocket 3.3 13:28:07 10° N 13:33:39 50° ENE 13:39:07 10° SE
IDEFIX/ARIANE 42P 4.3 13:33:19 10° NW 13:35:24 12° WNW 13:37:28 10° W
